"Datum/tijd (MEZT)";"rws verwachting golfhoogte";"rws verwachting deininghoogte";"golfhoogte";"deininghoogte"
2024-04-18 01:00;125;24;130;24
2024-04-18 01:10;125;24;126;25
2024-04-18 01:20;124;25;125;25
2024-04-18 01:30;120;25;124;23
2024-04-18 01:40;118;25;117;26
2024-04-18 01:50;116;25;110;25
2024-04-18 02:00;115;26;114;24
2024-04-18 02:10;115;26;115;29
2024-04-18 02:20;116;25;118;27
2024-04-18 02:30;115;25;120;24
2024-04-18 02:40;114;24;113;23
2024-04-18 02:50;112;24;107;23
2024-04-18 03:00;109;23;111;25
2024-04-18 03:10;107;23;110;23
2024-04-18 03:20;106;23;105;21
2024-04-18 03:30;105;22;102;23
2024-04-18 03:40;105;22;101;22
2024-04-18 03:50;105;23;108;21
2024-04-18 04:00;105;22;110;24
2024-04-18 04:10;105;21;106;23
2024-04-18 04:20;103;20;101;19
2024-04-18 04:30;101;19;100;17
2024-04-18 04:40;100;18;100;17
2024-04-18 04:50;100;18;98;19
2024-04-18 05:00;98;18;100;20
2024-04-18 05:10;97;18;100;16
2024-04-18 05:20;97;18;94;16
2024-04-18 05:30;97;17;92;18
2024-04-18 05:40;95;17;99;19
2024-04-18 05:50;94;17;99;17
2024-04-18 06:00;96;16;91;15
2024-04-18 06:10;96;16;91;16
2024-04-18 06:20;94;16;98;15
2024-04-18 06:30;94;17;99;17
2024-04-18 06:40;93;18;92;18
2024-04-18 06:50;91;18;88;19
2024-04-18 07:00;90;18;88;19
2024-04-18 07:10;89;18;89;19
2024-04-18 07:20;91;17;91;17
2024-04-18 07:30;92;17;91;15
2024-04-18 07:40;92;16;95;16
2024-04-18 07:50;93;15;95;18
2024-04-18 08:00;93;15;90;15
2024-04-18 08:10;93;15;92;12
2024-04-18 08:20;94;14;93;13
2024-04-18 08:30;96;14;96;15
2024-04-18 08:40;97;14;99;15
2024-04-18 08:50;97;15;101;14
2024-04-18 09:00;96;14;98;14
2024-04-18 09:10;96;14;93;15
2024-04-18 09:20;97;14;89;14
2024-04-18 09:30;98;15;99;14
2024-04-18 09:40;101;14;106;15
2024-04-18 09:50;105;15;105;15
2024-04-18 10:00;108;16;106;14
2024-04-18 10:10;110;16;110;17
2024-04-18 10:20;111;16;115;18
2024-04-18 10:30;112;17;112;16
2024-04-18 10:40;112;17;113;17
2024-04-18 10:50;112;16;112;17
2024-04-18 11:00;113;16;107;15
2024-04-18 11:10;112;16;115;15
2024-04-18 11:20;112;16;117;16
2024-04-18 11:30;112;17;109;18
2024-04-18 11:40;112;17;110;18
2024-04-18 11:50;110;17;111;16
2024-04-18 12:00;110;18;111;16
2024-04-18 12:10;109;18;109;19
2024-04-18 12:20;108;18;108;19
2024-04-18 12:30;107;19;106;18
2024-04-18 12:40;106;18;106;20
2024-04-18 12:50;105;17;104;17
2024-04-18 13:00;105;17;105;16
2024-04-18 13:10;105;17;105;16
2024-04-18 13:20;105;17;105;15
2024-04-18 13:30;104;17;105;19
2024-04-18 13:40;104;17;103;18
2024-04-18 13:50;105;17;101;15
2024-04-18 14:00;104;17;105;16
2024-04-18 14:10;103;16;109;17
2024-04-18 14:20;102;16;103;17
2024-04-18 14:30;100;16;97;16
2024-04-18 14:40;97;15;96;14
2024-04-18 14:50;96;15;94;14
2024-04-18 15:00;95;14;97;15
2024-04-18 15:10;95;14;97;14
2024-04-18 15:20;94;14;93;14
2024-04-18 15:30;93;14;93;14
2024-04-18 15:40;91;14;92;15
2024-04-18 15:50;90;14;89;14
2024-04-18 16:00;89;13;88;13
2024-04-18 16:10;88;13;90;12
2024-04-18 16:20;88;13;87;13
2024-04-18 16:30;87;13;86;14
2024-04-18 16:40;85;14;88;13
2024-04-18 16:50;85;13;83;14
2024-04-18 17:00;84;13;83;14
2024-04-18 17:10;83;13;83;12
2024-04-18 17:20;83;12;81;12
2024-04-18 17:30;82;12;86;12
2024-04-18 17:40;82;12;84;12
2024-04-18 17:50;82;12;78;11
2024-04-18 18:00;81;12;80;11
2024-04-18 18:10;80;12;81;13
2024-04-18 18:20;80;12;80;13
2024-04-18 18:30;81;12;79;12
2024-04-18 18:40;81;11;81;10
2024-04-18 18:50;81;11;82;10
2024-04-18 19:00;82;11;81;12
2024-04-18 19:10;83;11;82;11
2024-04-18 19:20;84;11;84;10
2024-04-18 19:30;85;11;85;11
2024-04-18 19:40;86;11;87;11
2024-04-18 19:50;87;12;89;13
2024-04-18 20:00;88;12;86;12
2024-04-18 20:10;88;11;87;11
2024-04-18 20:20;87;11;90;11
2024-04-18 20:30;88;10;87;10
2024-04-18 20:40;89;10;87;10
2024-04-18 20:50;91;10;90;10
2024-04-18 21:00;94;11;92;10
2024-04-18 21:10;96;11;100;12
2024-04-18 21:20;99;12;102;13
2024-04-18 21:30;101;12;98;12
2024-04-18 21:40;103;13;102;11
2024-04-18 21:50;107;13;103;13
2024-04-18 22:00;112;14;108;15
2024-04-18 22:10;116;14;122;15
2024-04-18 22:20;120;14;124;15
2024-04-18 22:30;122;14;123;13
2024-04-18 22:40;123;14;122;12
2024-04-18 22:50;124;13;121;14
2024-04-18 23:00;124;13;126;14
2024-04-18 23:10;123;14;129;12
2024-04-18 23:20;125;14;122;14
2024-04-18 23:30;127;14;117;15
2024-04-18 23:40;130;15;129;15
2024-04-18 23:50;137;16;139;16
2024-04-19 00:00;147;16;142;17
2024-04-19 00:10;155;17;158;16
2024-04-19 00:20;162;17;167;17
2024-04-19 00:30;169;17;167;17
2024-04-19 00:40;174;18;175;16
2024-04-19 00:50;179;18;177;18
2024-04-19 01:00;183;18;184;20
2024-04-19 01:10;188;18;190;19
2024-04-19 01:20;190;19;191;17
2024-04-19 01:30;192;19;196;18
2024-04-19 01:40;192;19;191;20
2024-04-19 01:50;192;18;194;20
2024-04-19 02:00;193;18;190;18
2024-04-19 02:10;193;17;191;16
2024-04-19 02:20;196;16;199;17
2024-04-19 02:30;201;16;193;15
2024-04-19 02:40;205;16;208;16
2024-04-19 02:50;205;15;215;17
2024-04-19 03:00;208;15;211;15
2024-04-19 03:10;211;15;200;14
2024-04-19 03:20;215;15;207;14
2024-04-19 03:30;223;15;220;14
2024-04-19 03:40;232;16;236;17
2024-04-19 03:50;238;17;253;18
2024-04-19 04:00;242;17;242;17
2024-04-19 04:10;247;17;241;18
2024-04-19 04:20;249;17;239;17
2024-04-19 04:30;247;16;258;16
2024-04-19 04:40;246;16;265;16
2024-04-19 04:50;250;17;232;15
2024-04-19 05:00;250;17;236;17
2024-04-19 05:10;245;17;258;19
2024-04-19 05:20;245;17;259;18
2024-04-19 05:30;245;17;239;17
2024-04-19 05:40;242;17;232;16
2024-04-19 05:50;235;16;239;16
2024-04-19 06:00;234;16;239;17
2024-04-19 06:10;234;16;228;16
2024-04-19 06:20;232;15;230;14
2024-04-19 06:30;233;15;236;15
2024-04-19 06:40;236;15;225;15
2024-04-19 06:50;234;16;247;16
2024-04-19 07:00;235;15;241;17
2024-04-19 07:10;238;15;221;15
2024-04-19 07:20;231;15;242;14
2024-04-19 07:30;224;14;237;14
2024-04-19 07:40;222;13;212;13
2024-04-19 07:50;216;13;209;13
2024-04-19 08:00;211;13;209;13
2024-04-19 08:10;211;13;213;14
2024-04-19 08:20;214;14;214;14
2024-04-19 08:30;214;14;212;13
2024-04-19 08:40;212;14;224;14
2024-04-19 08:50;212;14;205;14
2024-04-19 09:00;207;13;205;14
2024-04-19 09:10;203;13;212;13
2024-04-19 09:20;205;13;190;11
2024-04-19 09:30;208;12;201;13
2024-04-19 09:40;209;12;219;13
2024-04-19 09:50;217;12;217;11
2024-04-19 10:00;222;12;218;12
2024-04-19 10:10;224;12;229;13
2024-04-19 10:20;225;13;225;13
2024-04-19 10:30;229;13;230;13
2024-04-19 10:40;233;13;224;13
2024-04-19 10:50;235;14;235;13
2024-04-19 11:00;234;14;251;15
2024-04-19 11:10;236;14;237;14
2024-04-19 11:20;237;15;224;15
2024-04-19 11:30;236;15;233;15
2024-04-19 11:40;241;15;238;14
2024-04-19 11:50;246;15;247;15
2024-04-19 12:00;248;16;262;15
2024-04-19 12:10;251;17;248;16
2024-04-19 12:20;250;17;247;19
2024-04-19 12:30;243;18;252;19
2024-04-19 12:40;241;18;239;17
2024-04-19 12:50;244;18;228;18
2024-04-19 13:00;247;18;238;17
2024-04-19 13:10;249;19;265;18
2024-04-19 13:20;253;19;267;21
2024-04-19 13:30;255;19;248;20
2024-04-19 13:40;251;19;248;17
2024-04-19 13:50;246;18;245;18
2024-04-19 14:00;242;18;246;18
2024-04-19 14:10;243;18;241;18
2024-04-19 14:20;246;18;230;17
2024-04-19 14:30;248;18;253;17
2024-04-19 14:40;251;18;259;18
2024-04-19 14:50;254;18;258;18
2024-04-19 15:00;253;18;256;20
2024-04-19 15:10;253;18;244;19
2024-04-19 15:20;253;18;250;17
2024-04-19 15:30;250;18;258;18
2024-04-19 15:40;251;18;256;17
2024-04-19 15:50;253;19;244;19
2024-04-19 16:00;254;20;249;21
2024-04-19 16:10;257;21;259;22
2024-04-19 16:20;263;22;261;22
2024-04-19 16:30;266;22;271;22
2024-04-19 16:40;270;22;273;21
2024-04-19 16:50;274;22;268;23
2024-04-19 17:00;276;22;279;24
2024-04-19 17:10;283;23;281;20
2024-04-19 17:20;293;25;277;21
2024-04-19 17:30;300;25;310;28
2024-04-19 17:40;302;27;319;30
2024-04-19 17:50;303;28;311;27
2024-04-19 18:00;300;30;294;27
2024-04-19 18:10;295;31;283;30
2024-04-19 18:20;295;33;295;36
2024-04-19 18:30;302;35;292;36
2024-04-19 18:40;308;37;309;34
2024-04-19 18:50;313;38;329;38
2024-04-19 19:00;324;40;317;40
2024-04-19 19:10;330;43;319;44
2024-04-19 19:20;328;44;347;46
2024-04-19 19:30;330;45;337;47
2024-04-19 19:40;340;47;320;44
2024-04-19 19:50;342;50;329;44
2024-04-19 20:00;340;50;367;56
2024-04-19 20:10;346;53;356;57
2024-04-19 20:20;357;57;326;51
2024-04-19 20:30;360;58;353;58
2024-04-19 20:40;355;59;382;64
2024-04-19 20:50;359;64;384;60
2024-04-19 21:00;371;68;329;62
2024-04-19 21:10;375;74;349;74
2024-04-19 21:20;374;82;410;79
2024-04-19 21:30;380;88;402;94
2024-04-19 21:40;378;91;381;101
2024-04-19 21:50;366;95;359;90
2024-04-19 22:00;357;96;336;93
2024-04-19 22:10;353;98;354;99
2024-04-19 22:20;352;104;355;99
2024-04-19 22:30;355;109;362;109
2024-04-19 22:40;357;111;355;122
2024-04-19 22:50;361;115;348;117
2024-04-19 23:00;360;117;367;106
2024-04-19 23:10;357;118;373;120
2024-04-19 23:20;351;119;357;121
2024-04-19 23:30;344;119;339;128
2024-04-19 23:40;341;124;320;121
2024-04-19 23:50;341;131;333;103
2024-04-20 00:00;343;134;354;145
2024-04-20 00:10;339;136;360;158
2024-04-20 00:20;333;139;346;144
2024-04-20 00:30;327;135;301;131
2024-04-20 00:40;319;130;304;116
2024-04-20 00:50;314;127;326;128
2024-04-20 01:00;317;126;318;130
2024-04-20 01:10;317;125;320;130
2024-04-20 01:20;310;122;318;128
2024-04-20 01:30;302;120;303;107
2024-04-20 01:40;299;118;292;117
2024-04-20 01:50;301;118;276;119
2024-04-20 02:00;308;123;304;119
2024-04-20 02:10;314;125;331;129
2024-04-20 02:20;318;120;336;133
2024-04-20 02:30;315;119;325;124
2024-04-20 02:40;311;121;292;96
2024-04-20 02:50;308;129;290;112
2024-04-20 03:00;301;124;313;142
2024-04-20 03:10;299;129;319;171
2024-04-20 03:20;301;129;289;101
2024-04-20 03:30;295;124;286;119
2024-04-20 03:40;286;112;296;112
2024-04-20 03:50;281;110;284;116
2024-04-20 04:00;277;103;273;110
2024-04-20 04:10;270;97;264;92
2024-04-20 04:20;267;90;268;87
2024-04-20 04:30;269;85;260;80
2024-04-20 04:40;271;83;270;82
2024-04-20 04:50;272;82;284;85
2024-04-20 05:00;274;80;271;80
2024-04-20 05:10;274;76;273;81
2024-04-20 05:20;271;71;272;70
2024-04-20 05:30;269;67;269;62
2024-04-20 05:40;268;64;270;60
2024-04-20 05:50;271;62;260;63
2024-04-20 06:00;272;60;268;67
2024-04-20 06:10;270;60;287;58
2024-04-20 06:20;275;59;274;54
2024-04-20 06:30;281;58;260;58
2024-04-20 06:40;279;57;286;59
2024-04-20 06:50;278;56;296;59
2024-04-20 07:00;279;54;277;54
2024-04-20 07:10;275;51;270;51
2024-04-20 07:20;267;48;267;49
2024-04-20 07:30;265;46;266;44
2024-04-20 07:40;267;46;257;44
2024-04-20 07:50;267;47;266;43
2024-04-20 08:00;262;48;280;49
2024-04-20 08:10;258;48;268;53
2024-04-20 08:20;255;49;241;49
2024-04-20 08:30;254;49;233;46
2024-04-20 08:40;254;47;253;49
2024-04-20 08:50;257;47;273;47
2024-04-20 09:00;263;47;269;44
2024-04-20 09:10;265;47;255;47
2024-04-20 09:20;263;49;265;46
2024-04-20 09:30;265;51;264;53
2024-04-20 09:40;270;53;262;55
2024-04-20 09:50;269;54;281;53
2024-04-20 10:00;268;54;278;56
2024-04-20 10:10;274;56;261;51
2024-04-20 10:20;276;59;258;56
2024-04-20 10:30;277;63;291;66
2024-04-20 10:40;280;67;290;68
2024-04-20 10:50;279;70;285;72
2024-04-20 11:00;270;71;278;73
2024-04-20 11:10;266;74;252;70
2024-04-20 11:20;264;78;246;71
2024-04-20 11:30;260;80;267;86
2024-04-20 11:40;266;85;276;91
2024-04-20 11:50;273;89;259;80
2024-04-20 12:00;272;89;281;95
2024-04-20 12:10;270;89;280;93
2024-04-20 12:20;270;93;266;85
2024-04-20 12:30;263;94;265;91
2024-04-20 12:40;256;94;260;99
2024-04-20 12:50;249;95;245;104
2024-04-20 13:00;241;93;244;93
2024-04-20 13:10;234;89;233;87
2024-04-20 13:20;230;84;222;82
2024-04-20 13:30;233;86;224;77
2024-04-20 13:40;236;88;228;82
2024-04-20 13:50;239;89;257;101
2024-04-20 14:00;244;92;248;100
2024-04-20 14:10;245;96;238;86
2024-04-20 14:20;242;97;249;92
2024-04-20 14:30;241;95;233;101
2024-04-20 14:40;239;93;243;105
2024-04-20 14:50;238;94;240;91
2024-04-20 15:00;241;95;228;78
2024-04-20 15:10;242;93;244;94
2024-04-20 15:20;244;94;248;105
2024-04-20 15:30;248;97;248;97
2024-04-20 15:40;250;98;252;95
2024-04-20 15:50;251;99;249;93
2024-04-20 16:00;253;98;254;100
2024-04-20 16:10;253;96;254;108
2024-04-20 16:20;252;96;255;95
2024-04-20 16:30;252;94;254;86
2024-04-20 16:40;251;94;244;89
2024-04-20 16:50;249;94;255;90
2024-04-20 17:00;248;95;245;109
2024-04-20 17:10;252;96;246;95
2024-04-20 17:20;254;94;249;93
2024-04-20 17:30;260;89;265;95
2024-04-20 17:40;268;89;265;80
2024-04-20 17:50;271;88;273;82
2024-04-20 18:00;270;88;288;96
2024-04-20 18:10;272;92;263;88
2024-04-20 18:20;275;94;261;94
2024-04-20 18:30;274;91;275;101
2024-04-20 18:40;274;90;287;91
2024-04-20 18:50;274;87;282;83
2024-04-20 19:00;276;86;264;80
2024-04-20 19:10;278;86;263;82
2024-04-20 19:20;280;86;284;93
2024-04-20 19:30;287;88;296;93
2024-04-20 19:40;292;90;295;81
2024-04-20 19:50;292;89;296;89
2024-04-20 20:00;286;85;290;95
2024-04-20 20:10;282;86;281;85
2024-04-20 20:20;282;86;267;74
2024-04-20 20:30;278;84;277;86
2024-04-20 20:40;272;86;293;90
2024-04-20 20:50;269;90;273;83
2024-04-20 21:00;265;89;251;97
2024-04-20 21:10;260;90;251;93
2024-04-20 21:20;260;93;256;80
2024-04-20 21:30;263;91;267;98
2024-04-20 21:40;264;91;275;99
2024-04-20 21:50;262;94;268;86
2024-04-20 22:00;260;92;256;94
2024-04-20 22:10;260;89;245;93
2024-04-20 22:20;259;86;258;87
2024-04-20 22:30;258;80;274;83
2024-04-20 22:40;260;78;263;72
2024-04-20 22:50;261;78;249;67
2024-04-20 23:00;260;77;255;81
2024-04-20 23:10;259;78;264;89
2024-04-20 23:20;257;79;269;77
2024-04-20 23:30;253;77;259;76
2024-04-20 23:40;245;74;240;72
2024-04-20 23:50;237;73;234;70
2024-04-21 00:00;231;71;225;75
2024-04-21 00:10;230;70;225;71
2024-04-21 00:20;233;69;230;66
2024-04-21 00:30;238;70;235;66
2024-04-21 00:40;239;70;249;68
2024-04-21 00:50;239;69;251;77
2024-04-21 01:00;240;69;231;73
2024-04-21 01:10;238;71;227;59
2024-04-21 01:20;231;70;241;69
2024-04-21 01:30;228;68;238;76
2024-04-21 01:40;226;69;220;71
2024-04-21 01:50;222;67;213;66
2024-04-21 02:00;217;65;218;62
2024-04-21 02:10;218;63;222;62
2024-04-21 02:20;220;63;214;63
2024-04-21 02:30;221;62;225;63
2024-04-21 02:40;220;62;220;63
2024-04-21 02:50;222;61;222;61
2024-04-21 03:00;221;59;220;58
2024-04-21 03:10;220;57;221;58
2024-04-21 03:20;223;55;220;56
2024-04-21 03:30;228;55;216;53
2024-04-21 03:40;232;55;236;52
2024-04-21 03:50;234;55;246;56
2024-04-21 04:00;236;55;240;60
2024-04-21 04:10;235;55;234;54
2024-04-21 04:20;233;52;224;52
2024-04-21 04:30;234;50;229;51
2024-04-21 04:40;237;49;240;45
2024-04-21 04:50;240;48;245;47
2024-04-21 05:00;244;47;245;50
2024-04-21 05:10;246;46;242;49
2024-04-21 05:20;247;46;247;43
2024-04-21 05:30;249;46;250;40
2024-04-21 05:40;251;46;252;50
2024-04-21 05:50;254;46;256;50
2024-04-21 06:00;257;47;252;45
2024-04-21 06:10;257;46;262;47
2024-04-21 06:20;258;45;263;43
2024-04-21 06:30;264;45;252;45
2024-04-21 06:40;268;45;262;45
2024-04-21 06:50;271;46;279;47
2024-04-21 07:00;279;48;283;47
2024-04-21 07:10;289;51;277;45
2024-04-21 07:20;292;53;296;57
2024-04-21 07:30;293;54;310;61
2024-04-21 07:40;296;58;293;53
2024-04-21 07:50;297;61;287;56
2024-04-21 08:00;297;64;294;63
2024-04-21 08:10;301;69;301;72
2024-04-21 08:20;302;73;309;76
2024-04-21 08:30;296;74;314;78
2024-04-21 08:40;288;72;290;76
2024-04-21 08:50;284;70;264;69
2024-04-21 09:00;286;71;261;62
2024-04-21 09:10;288;73;292;65
2024-04-21 09:20;294;78;322;81
2024-04-21 09:30;301;83;303;86
2024-04-21 09:40;300;84;294;97
2024-04-21 09:50;292;84;292;87
2024-04-21 10:00;286;84;288;71
2024-04-21 10:10;284;81;285;81
2024-04-21 10:20;284;83;269;82
2024-04-21 10:30;286;88;286;85
2024-04-21 10:40;287;87;292;96
2024-04-21 10:50;289;85;296;97
2024-04-21 11:00;290;86;293;73
2024-04-21 11:10;291;84;279;75
2024-04-21 11:20;289;80;291;88
2024-04-21 11:30;284;79;298;86
2024-04-21 11:40;280;77;285;77
2024-04-21 11:50;274;73;266;67
2024-04-21 12:00;266;69;262;66
2024-04-21 12:10;262;70;261;67
2024-04-21 12:20;264;74;257;70
2024-04-21 12:30;267;78;263;80
2024-04-21 12:40;267;80;277;88
2024-04-21 12:50;265;80;279;84
2024-04-21 13:00;259;79;259;76
2024-04-21 13:10;254;79;247;71
2024-04-21 13:20;246;78;234;77
2024-04-21 13:30;240;77;250;86
2024-04-21 13:40;236;77;241;78
2024-04-21 13:50;233;76;229;74
2024-04-21 14:00;225;72;226;70
2024-04-21 14:10;218;69;218;70
2024-04-21 14:20;216;67;210;68
2024-04-21 14:30;215;67;208;61
2024-04-21 14:40;219;69;219;67
2024-04-21 14:50;222;72;221;68
2024-04-21 15:00;221;73;237;79
2024-04-21 15:10;217;71;224;83
2024-04-21 15:20;211;70;204;70
2024-04-21 15:30;202;67;200;56
2024-04-21 15:40;197;62;188;60
2024-04-21 15:50;193;58;196;68
2024-04-21 16:00;191;56;195;57
2024-04-21 16:10;190;54;188;47
2024-04-21 16:20;188;49;190;49
2024-04-21 16:30;185;46;183;48
2024-04-21 16:40;184;46;184;43
2024-04-21 16:50;182;45;181;43
2024-04-21 17:00;180;42;182;46
2024-04-21 17:10;177;41;181;44
2024-04-21 17:20;172;40;171;36
2024-04-21 17:30;168;38;169;35
2024-04-21 17:40;165;37;157;39
2024-04-21 17:50;165;37;160;38
2024-04-21 18:00;166;36;168;36
2024-04-21 18:10;168;33;170;35
2024-04-21 18:20;170;32;173;31
2024-04-21 18:30;170;32;171;25
2024-04-21 18:40;169;31;169;32
2024-04-21 18:50;168;30;167;37
2024-04-21 19:00;167;31;167;31
2024-04-21 19:10;164;30;166;26
2024-04-21 19:20;163;27;164;28
2024-04-21 19:30;165;26;157;26
2024-04-21 19:40;165;26;163;25
2024-04-21 19:50;165;26;174;26
2024-04-21 20:00;167;25;167;26
2024-04-21 20:10;168;24;162;26
2024-04-21 20:20;167;23;167;23
2024-04-21 20:30;168;21;168;21
2024-04-21 20:40;167;19;172;20
2024-04-21 20:50;165;18;169;16
2024-04-21 21:00;164;17;159;15
2024-04-21 21:10;162;17;158;18
2024-04-21 21:20;162;17;160;18
2024-04-21 21:30;163;17;164;17
2024-04-21 21:40;167;17;168;17
2024-04-21 21:50;171;17;166;16
2024-04-21 22:00;173;17;175;17
2024-04-21 22:10;175;17;181;17
2024-04-21 22:20;176;17;175;18
2024-04-21 22:30;174;17;176;18
2024-04-21 22:40;174;17;171;17
2024-04-21 22:50;175;17;169;16
2024-04-21 23:00;174;17;179;17
2024-04-21 23:10;175;17;180;18
2024-04-21 23:20;177;18;170;16
2024-04-21 23:30;177;18;178;18
2024-04-21 23:40;176;17;179;19
2024-04-21 23:50;178;17;176;18
2024-04-22 00:00;179;18;179;15
2024-04-22 00:10;179;18;178;17
2024-04-22 00:20;180;18;182;20
2024-04-22 00:30;180;19;182;19
2024-04-22 00:40;177;20;179;20
2024-04-22 00:50;176;20;177;21
2024-04-22 01:00;177;21;167;21
2024-04-22 01:10;180;22;176;21
2024-04-22 01:20;182;23;186;23
2024-04-22 01:30;184;24;193;26
2024-04-22 01:40;183;24;187;25
2024-04-22 01:50;180;25;177;24
2024-04-22 02:00;176;24;171;24
2024-04-22 02:10;171;24;172;24
2024-04-22 02:20;168;24;172;23
2024-04-22 02:30;165;25;163;24
2024-04-22 02:40;162;25;160;25
2024-04-22 02:50;156;24;160;27
2024-04-22 03:00;152;25;155;24
2024-04-22 03:10;151;26;142;22
2024-04-22 03:20;147;27;144;26
2024-04-22 03:30;143;27;152;32
2024-04-22 03:40;140;27;144;30
2024-04-22 03:50;137;26;132;23
2024-04-22 04:00;133;24;130;23
2024-04-22 04:10;132;22;126;22
2024-04-22 04:20;131;22;132;22
2024-04-22 04:30;130;22;138;22
2024-04-22 04:40;130;21;131;21
2024-04-22 04:50;129;21;121;21
2024-04-22 05:00;127;20;127;20
2024-04-22 05:10;126;18;130;19
2024-04-22 05:20;126;17;125;17
2024-04-22 05:30;125;16;125;14
2024-04-22 05:40;123;16;123;15
2024-04-22 05:50;121;16;122;17
2024-04-22 06:00;120;16;120;17
2024-04-22 06:10;120;16;117;15
2024-04-22 06:20;120;15;120;16
2024-04-22 06:30;121;15;122;15
2024-04-22 06:40;122;14;122;14
2024-04-22 06:50;121;13;124;14
2024-04-22 07:00;120;13;120;12
2024-04-22 07:10;120;12;116;12
2024-04-22 07:20;119;11;118;12
2024-04-22 07:30;119;11;121;10
2024-04-22 07:40;120;10;122;9
2024-04-22 07:50;120;9;119;10
2024-04-22 08:00;121;9;118;9
2024-04-22 08:10;121;9;121;9
2024-04-22 08:20;121;9;123;9
2024-04-22 08:30;121;9;125;10
2024-04-22 08:40;121;9;119;9
2024-04-22 08:50;119;8;119;7
2024-04-22 09:00;116;8;118;8
2024-04-22 09:10;115;8;112;8
2024-04-22 09:20;115;8;113;8
2024-04-22 09:30;115;8;115;8
2024-04-22 09:40;116;8;118;8
2024-04-22 09:50;117;8;116;8
2024-04-22 10:00;118;8;116;9
2024-04-22 10:10;118;8;119;8
2024-04-22 10:20;118;8;121;8
2024-04-22 10:30;118;8;119;8
2024-04-22 10:40;117;8;117;7
2024-04-22 10:50;117;8;113;7
2024-04-22 11:00;117;8;115;8
2024-04-22 11:10;120;8;119;8
2024-04-22 11:20;124;8;123;9
2024-04-22 11:30;126;8;132;9
2024-04-22 11:40;128;8;129;8
2024-04-22 11:50;130;8;127;8
2024-04-22 12:00;128;7;131;7
2024-04-22 12:10;127;7;129;7
2024-04-22 12:20;125;8;125;7
2024-04-22 12:30;122;8;121;8
2024-04-22 12:40;120;9;118;10
2024-04-22 12:50;120;9;117;10
2024-04-22 13:00;120;10;119;9
2024-04-22 13:10;120;10;123;10
2024-04-22 13:20;122;11;122;11
2024-04-22 13:30;124;12;121;12
2024-04-22 13:40;125;13;127;13
2024-04-22 13:50;125;13;129;14
2024-04-22 14:00;126;13;126;14
2024-04-22 14:10;126;14;124;13
2024-04-22 14:20;126;15;124;13
2024-04-22 14:30;127;15;129;16
2024-04-22 14:40;128;16;127;18
2024-04-22 14:50;128;16;129;16
2024-04-22 15:00;127;16;129;15
2024-04-22 15:10;125;16;128;17
2024-04-22 15:20;124;16;121;16
2024-04-22 15:30;123;16;119;15
2024-04-22 15:40;120;15;124;16
2024-04-22 15:50;119;15;121;15
2024-04-22 16:00;120;15;115;14
2024-04-22 16:10;121;15;115;15
2024-04-22 16:20;120;14;125;15
2024-04-22 16:30;120;15;127;14
2024-04-22 16:40;120;14;116;14
2024-04-22 16:50;117;14;117;15
2024-04-22 17:00;115;14;115;14
2024-04-22 17:10;114;14;110;13
2024-04-22 17:20;114;13;115;13
2024-04-22 17:30;113;13;115;14
2024-04-22 17:40;115;13;115;13
2024-04-22 17:50;116;13;112;12
2024-04-22 18:00;117;12;117;12
2024-04-22 18:10;117;12;123;12
2024-04-22 18:20;116;12;119;11
2024-04-22 18:30;114;11;112;11
2024-04-22 18:40;111;11;111;12
2024-04-22 18:50;110;10;103;11
2024-04-22 19:00;110;10;110;9
2024-04-22 19:10;109;9;113;8
2024-04-22 19:20;109;9;112;9
2024-04-22 19:30;108;9;108;10
2024-04-22 19:40;106;10;101;10
2024-04-22 19:50;105;10;105;10
2024-04-22 20:00;105;9;106;9
2024-04-22 20:10;105;9;107;9
2024-04-22 20:20;106;8;104;8
2024-04-22 20:30;106;8;105;7
2024-04-22 20:40;105;7;109;7
2024-04-22 20:50;105;7;105;7
2024-04-22 21:00;105;7;102;6
2024-04-22 21:10;103;7;104;7
2024-04-22 21:20;102;7;103;8
2024-04-22 21:30;102;7;99;8
2024-04-22 21:40;102;7;101;6
2024-04-22 21:50;100;7;104;7
2024-04-22 22:00;99;7;101;7
2024-04-22 22:10;97;7;94;7
2024-04-22 22:20;96;7;93;7
2024-04-22 22:30;97;7;95;7
2024-04-22 22:40;97;7;99;7
2024-04-22 22:50;99;7;102;7
2024-04-22 23:00;101;7;98;7
2024-04-22 23:10;100;7;101;7
2024-04-22 23:20;99;7;103;6
2024-04-22 23:30;98;7;98;7
2024-04-22 23:40;98;7;94;8
2024-04-22 23:50;98;8;96;8
2024-04-23 00:00;98;8;99;8
2024-04-23 00:10;99;8;102;8
2024-04-23 00:20;99;8;100;8
2024-04-23 00:30;97;8;96;8
2024-04-23 00:40;94;8;96;8
2024-04-23 00:50;91;9;91;8
2024-04-23 01:00;93;10;86;10
2024-04-23 01:10;91;10;88;12
2024-04-23 01:20;90;10;102;10
2024-04-23 01:30;90;10;89;8
2024-04-23 01:40;91;10;86;9
2024-04-23 01:50;89;10;87;10
2024-04-23 02:00;88;10;92;11
2024-04-23 02:10;88;10;92;11
2024-04-23 02:20;87;10;85;9
2024-04-23 02:30;84;10;83;9
2024-04-23 02:40;81;10;84;9
2024-04-23 02:50;81;10;77;10
2024-04-23 03:00;80;10;78;11
2024-04-23 03:10;78;10;81;10
2024-04-23 03:20;78;10;79;9
2024-04-23 03:30;76;10;77;10
2024-04-23 03:40;75;11;76;11
2024-04-23 03:50;73;11;69;11
2024-04-23 04:00;72;11;73;12
2024-04-23 04:10;71;10;72;10
2024-04-23 04:20;71;10;69;9
2024-04-23 04:30;72;9;70;9
2024-04-23 04:40;72;9;71;8
2024-04-23 04:50;71;9;76;9
2024-04-23 05:00;71;9;74;9
2024-04-23 05:10;70;9;66;9
2024-04-23 05:20;68;8;66;8
2024-04-23 05:30;67;8;68;8
2024-04-23 05:40;66;7;68;8
2024-04-23 05:50;65;7;65;7
2024-04-23 06:00;63;7;66;6
2024-04-23 06:10;62;6;65;5
2024-04-23 06:20;61;6;61;6
2024-04-23 06:30;60;6;60;6
2024-04-23 06:40;58;6;58;6
2024-04-23 06:50;62;6;62;6